DUZEAR1 KAXX-KLVS

Flight info

Callsign DUZEAR1
Flight time 0h 15m
Altitude 15000
Route KAXX/17 N0281F150 ANEKE2 CELAV DCT KLVS/20
Aircraft PC12/L-SDE2FGIRWY/SB1

Departure

Time 2026-04-23 15:35
Airport Angel Fire Airport (KAXX)

Arrival

Time 2026-04-23 15:51
Airport Las Vegas Municipal Airport (KLVS)
Time Latitude Longitude Altitude Speed Heading
2026-04-23 15:19 36.42032 -105.29134 8358 ft 0 kts 180°
2026-04-23 15:31 36.42023 -105.29135 8358 ft 6 kts 181°
2026-04-23 15:32 36.41976 -105.29096 8359 ft 14 kts 64°
2026-04-23 15:32 36.42112 -105.29074 8357 ft 29 kts
2026-04-23 15:32 36.42331 -105.29064 8357 ft 28 kts
2026-04-23 15:32 36.42570 -105.29050 8358 ft 41 kts
2026-04-23 15:33 36.42832 -105.29038 8364 ft 34 kts
2026-04-23 15:33 36.43112 -105.29023 8362 ft 46 kts
2026-04-23 15:33 36.43353 -105.29010 8359 ft 32 kts
2026-04-23 15:33 36.43440 -105.28967 8359 ft 1 kts 104°
2026-04-23 15:34 36.43408 -105.28935 8360 ft 7 kts 183°
2026-04-23 15:34 36.43406 -105.28935 8360 ft 0 kts 183°
2026-04-23 15:34 36.43232 -105.28944 8361 ft 59 kts 182°
2026-04-23 15:34 36.42616 -105.28976 8361 ft 115 kts 182°
2026-04-23 15:35 36.41687 -105.29018 8541 ft 150 kts 187°
2026-04-23 15:35 36.40526 -105.29081 8851 ft 183 kts 193°
2026-04-23 15:35 36.39192 -105.29072 9579 ft 192 kts 193°
2026-04-23 15:35 36.37876 -105.29274 10168 ft 189 kts 202°
2026-04-23 15:36 36.36653 -105.29536 11151 ft 171 kts 200°
2026-04-23 15:36 36.35487 -105.29496 12287 ft 166 kts 188°
2026-04-23 15:36 36.34336 -105.29128 13164 ft 178 kts 174°
2026-04-23 15:36 36.33183 -105.28481 14004 ft 183 kts 172°
2026-04-23 15:37 36.32018 -105.27838 14607 ft 191 kts 172°
2026-04-23 15:37 36.30763 -105.27138 14924 ft 203 kts 171°
2026-04-23 15:37 36.29358 -105.26372 14968 ft 239 kts 169°
2026-04-23 15:37 36.27789 -105.25490 14955 ft 261 kts 166°
2026-04-23 15:38 36.26098 -105.24515 14930 ft 273 kts 166°
2026-04-23 15:38 36.24343 -105.23636 14910 ft 267 kts 175°
2026-04-23 15:38 36.22546 -105.23232 14897 ft 260 kts 185°
2026-04-23 15:38 36.20742 -105.22998 14874 ft 262 kts 185°
2026-04-23 15:39 36.18923 -105.22724 14850 ft 266 kts 182°
2026-04-23 15:39 36.17107 -105.22107 14833 ft 277 kts 169°
2026-04-23 15:39 36.15359 -105.20999 14800 ft 288 kts 157°
2026-04-23 15:39 36.13791 -105.19412 14773 ft 296 kts 143°
2026-04-23 15:40 36.12499 -105.17388 14757 ft 305 kts 129°
2026-04-23 15:40 36.11578 -105.14990 14735 ft 313 kts 114°
2026-04-23 15:40 36.11029 -105.12380 14724 ft 313 kts 107°
2026-04-23 15:40 36.10523 -105.09763 14748 ft 312 kts 108°
2026-04-23 15:41 36.09980 -105.07184 14856 ft 307 kts 112°
2026-04-23 15:41 36.09081 -105.04839 14948 ft 297 kts 129°
2026-04-23 15:41 36.07807 -105.02866 14970 ft 291 kts 143°
2026-04-23 15:41 36.06247 -105.01336 14969 ft 283 kts 157°
2026-04-23 15:42 36.04500 -105.00288 14908 ft 277 kts 170°
2026-04-23 15:42 36.02642 -104.99737 14605 ft 274 kts 182°
2026-04-23 15:42 36.00747 -104.99594 14251 ft 274 kts 187°
2026-04-23 15:42 35.98834 -104.99484 13896 ft 276 kts 186°
2026-04-23 15:43 35.96944 -104.99353 13551 ft 270 kts 186°
2026-04-23 15:43 35.95050 -104.99232 13182 ft 274 kts 186°
2026-04-23 15:43 35.93137 -104.99118 12822 ft 276 kts 185°
2026-04-23 15:43 35.91214 -104.98996 12483 ft 277 kts 184°
2026-04-23 15:44 35.89291 -104.98874 12135 ft 277 kts 184°
2026-04-23 15:44 35.87370 -104.98753 11785 ft 275 kts 183°
2026-04-23 15:44 35.85469 -104.98722 11439 ft 267 kts 191°
2026-04-23 15:44 35.83836 -104.99100 11124 ft 216 kts 202°
2026-04-23 15:45 35.82580 -104.99685 10876 ft 179 kts 212°
2026-04-23 15:45 35.81517 -105.00428 10564 ft 185 kts 220°
2026-04-23 15:45 35.80402 -105.01412 10311 ft 190 kts 220°
2026-04-23 15:45 35.79447 -105.02203 10099 ft 144 kts 221°
2026-04-23 15:46 35.78559 -105.02980 9911 ft 169 kts 221°
2026-04-23 15:46 35.77585 -105.03817 9695 ft 169 kts 221°
2026-04-23 15:46 35.76628 -105.04631 9477 ft 165 kts 221°
2026-04-23 15:46 35.75691 -105.05436 9262 ft 165 kts 220°
2026-04-23 15:47 35.74801 -105.06196 8995 ft 150 kts 221°
2026-04-23 15:47 35.73951 -105.06925 8790 ft 133 kts 221°
2026-04-23 15:47 35.73258 -105.07512 8641 ft 120 kts 222°
2026-04-23 15:47 35.72563 -105.08118 8487 ft 121 kts 222°
2026-04-23 15:48 35.71890 -105.08693 8332 ft 114 kts 224°
2026-04-23 15:48 35.71232 -105.09258 8185 ft 119 kts 224°
2026-04-23 15:48 35.70550 -105.09845 8036 ft 122 kts 224°
2026-04-23 15:48 35.69902 -105.10397 7881 ft 105 kts 221°
2026-04-23 15:49 35.69340 -105.10872 7722 ft 92 kts 216°
2026-04-23 15:49 35.68819 -105.11325 7599 ft 94 kts 215°
2026-04-23 15:49 35.68291 -105.11782 7475 ft 90 kts 213°
2026-04-23 15:49 35.67787 -105.12225 7369 ft 87 kts 210°
2026-04-23 15:50 35.67303 -105.12632 7226 ft 81 kts 210°
2026-04-23 15:50 35.66829 -105.13031 7117 ft 86 kts 212°
2026-04-23 15:50 35.66352 -105.13437 6998 ft 81 kts 212°
2026-04-23 15:50 35.65922 -105.13806 6899 ft 73 kts 216°
2026-04-23 15:51 35.65560 -105.14116 6869 ft 40 kts 214°
2026-04-23 15:51 35.65466 -105.14196 6868 ft 22 kts 215°
2026-04-23 15:51 35.65336 -105.14308 6869 ft 25 kts 215°
2026-04-23 15:51 35.65197 -105.14427 6873 ft 24 kts 215°
2026-04-23 15:52 35.65175 -105.14545 6877 ft 13 kts 292°
2026-04-23 15:52 35.65186 -105.14576 6877 ft 11 kts 293°
2026-04-23 15:52 35.65218 -105.14679 6871 ft 12 kts 275°
2026-04-23 15:52 35.65211 -105.14756 6875 ft 3 kts 192°
2026-04-23 15:53 35.65201 -105.14756 6877 ft 0 kts 180°